Home > Weather > São Paulo > Past weeks

Flag for Brazil Past Weather in São Paulo, São Paulo, Brazil — Yesterday and Last 2 Weeks

Now
63 °F

Clear.


Feels Like: 63 °F
Forecast: 55 / 79 °F
Wind: 6 mph from East

Location: Sao Paulo Airport

Current Time: Jul 26, 2016 at 3:40:02 AM

Latest Report: Jul 26, 2016 at 3:00 AM


Visibility: 10 mi

Pressure: 30.15 "Hg (27.55 "Hg at 765m altitude)

Humidity: 68%

Dew Point: 52 °F

Location of São PauloLocation

Past Weather in São Paulo — Graph

°F

São Paulo Temperature Yesterday

Maximum temperature yesterday: 77 °F (at 2:00 PM)
Minimum temperature yesterday: 57 °F (at 2:00 AM)
Average temperature yesterday: 65 °F

High & Low Weather Summary for the Past Weeks

 TemperatureHumidityPressure
High84 °F (Jul 15, 2:00 PM)94% (Jul 17, 12:00 AM)30.30 "Hg (Jul 17, 12:00 AM)
Low46 °F (Jul 18, 1:01 AM)27% (Jul 15, 2:00 PM)29.89 "Hg (Jul 16, 5:00 AM)
Average62 °F66%30.14 "Hg
* Reported Jul 11 2:00 AM — Jul 26 2:00 AM, São Paulo, Weather by CustomWeather, © 2016

Note: Actual official high and low records may vary slightly from our data, if they occured in-between our weather recording intervals... More about our weather records

Advertising

São Paulo Weather History for the Previous 24 Hours

Scroll right to see more
 ConditionsComfort  
Time TempWeatherWind HumidityBarometerVisibility
2:00 AM
Tue, Jul 26
63 °FPassing clouds.3 mph64%30.15 "HgN/A
1:00 AM63 °FClear.2 mph64%30.18 "Hg10 mi
12:00 AM63 °FClear.2 mph64%30.18 "Hg10 mi
11:00 PM
Mon, Jul 25
63 °FPassing clouds.3 mph68%30.18 "HgN/A
10:00 PM64 °FClear.3 mph64%30.18 "Hg4 mi
9:00 PM64 °FClear.3 mph64%30.18 "Hg4 mi
8:00 PM64 °FClear.3 mph64%30.18 "Hg4 mi
7:00 PM66 °FClear.6 mph60%30.18 "Hg10 mi
6:00 PM66 °FClear.7 mph60%30.18 "Hg10 mi
5:00 PM72 °FClear.10 mph47%30.18 "Hg10 mi
4:00 PM73 °FSunny.10 mph47%30.18 "Hg10 mi
3:00 PM75 °FPassing clouds.10 mph44%30.18 "HgN/A
2:00 PM77 °FPassing clouds.3 mph44%30.18 "HgN/A
1:00 PM75 °FSunny.6 mph47%30.21 "Hg10 mi
12:00 PM73 °FSunny.5 mph50%30.24 "Hg10 mi
11:00 AM72 °FSunny.6 mph53%30.27 "Hg10 mi
10:00 AM68 °FClear.5 mph60%30.27 "Hg4 mi
9:00 AM64 °FClear.2 mph68%30.27 "Hg5 mi
8:00 AM61 °FClear.2 mph77%30.27 "Hg5 mi
7:00 AM57 °FClear.2 mph82%30.24 "Hg5 mi
6:00 AM57 °FSunny.3 mph82%30.21 "Hg5 mi
5:00 AM57 °FCool.No wind82%30.21 "Hg4 mi
4:00 AM57 °FCool.2 mph82%30.21 "Hg5 mi
3:00 AM59 °FCool.2 mph77%30.21 "Hg4 mi
Weather by CustomWeather, © 2016

See weather overviewHow to use our weather pages